Year,Month,Day,Hour,Minute,Value (Times are PST for temperature in C)
2015,08,06,00,00,15.10
2015,08,06,00,01,15.10
2015,08,06,00,02,15.10
2015,08,06,00,03,15.00
2015,08,06,00,04,15.00
2015,08,06,00,05,15.00
2015,08,06,00,06,14.90
2015,08,06,00,07,14.90
2015,08,06,00,08,14.90
2015,08,06,00,09,14.80
2015,08,06,00,10,14.70
2015,08,06,00,11,14.70
2015,08,06,00,12,14.70
2015,08,06,00,13,14.70
2015,08,06,00,14,14.60
2015,08,06,00,15,14.60
2015,08,06,00,16,14.50
2015,08,06,00,17,14.50
2015,08,06,00,18,14.40
2015,08,06,00,19,14.40
2015,08,06,00,20,14.30
2015,08,06,00,21,14.30
2015,08,06,00,22,14.20
2015,08,06,00,23,14.20
2015,08,06,00,24,14.20
2015,08,06,00,25,14.10
2015,08,06,00,26,14.10
2015,08,06,00,27,14.10
2015,08,06,00,28,14.10
2015,08,06,00,29,14.00
2015,08,06,00,30,14.00
2015,08,06,00,31,13.90
2015,08,06,00,32,13.90
2015,08,06,00,33,13.90
2015,08,06,00,34,13.90
2015,08,06,00,35,13.90
2015,08,06,00,36,13.80
2015,08,06,00,37,13.80
2015,08,06,00,38,13.80
2015,08,06,00,39,13.80
2015,08,06,00,40,13.80
2015,08,06,00,41,13.80
2015,08,06,00,42,13.80
2015,08,06,00,43,13.80
2015,08,06,00,44,13.80
2015,08,06,00,45,13.80
2015,08,06,00,46,13.80
2015,08,06,00,47,13.80
2015,08,06,00,48,13.70
2015,08,06,00,49,13.70
2015,08,06,00,50,13.70
2015,08,06,00,51,13.70
2015,08,06,00,52,13.70
2015,08,06,00,53,13.70
2015,08,06,00,54,13.70
2015,08,06,00,55,13.70
2015,08,06,00,56,13.70
2015,08,06,00,57,13.60
2015,08,06,00,58,13.60
2015,08,06,00,59,13.60
2015,08,06,01,00,13.60
2015,08,06,01,01,13.60
2015,08,06,01,02,13.50
2015,08,06,01,03,13.50
2015,08,06,01,04,13.40
2015,08,06,01,05,13.40
2015,08,06,01,06,13.40
2015,08,06,01,07,13.30
2015,08,06,01,08,13.30
2015,08,06,01,09,13.30
2015,08,06,01,10,13.30
2015,08,06,01,11,13.30
2015,08,06,01,12,13.30
2015,08,06,01,13,13.30
2015,08,06,01,14,13.20
2015,08,06,01,15,13.20
2015,08,06,01,16,13.20
2015,08,06,01,17,13.20
2015,08,06,01,18,13.20
2015,08,06,01,19,13.10
2015,08,06,01,20,13.10
2015,08,06,01,21,13.10
2015,08,06,01,22,13.10
2015,08,06,01,23,13.10
2015,08,06,01,24,13.10
2015,08,06,01,25,13.10
2015,08,06,01,26,13.10
2015,08,06,01,27,13.10
2015,08,06,01,28,13.00
2015,08,06,01,29,13.00
2015,08,06,01,30,13.00
2015,08,06,01,31,13.00
2015,08,06,01,32,13.00
2015,08,06,01,33,13.10
2015,08,06,01,34,13.10
2015,08,06,01,35,13.10
2015,08,06,01,36,13.10
2015,08,06,01,37,13.10
2015,08,06,01,38,13.10
2015,08,06,01,39,13.10
2015,08,06,01,40,13.10
2015,08,06,01,41,13.10
2015,08,06,01,42,13.20
2015,08,06,01,43,13.20
2015,08,06,01,44,13.20
2015,08,06,01,45,13.20
2015,08,06,01,46,13.20
2015,08,06,01,47,13.20
2015,08,06,01,48,13.20
2015,08,06,01,49,13.30
2015,08,06,01,50,13.30
2015,08,06,01,51,13.30
2015,08,06,01,52,13.30
2015,08,06,01,53,13.30
2015,08,06,01,54,13.30
2015,08,06,01,55,13.30
2015,08,06,01,56,13.30
2015,08,06,01,57,13.40
2015,08,06,01,58,13.40
2015,08,06,01,59,13.40
2015,08,06,02,00,13.40
2015,08,06,02,01,13.40
2015,08,06,02,02,13.40
2015,08,06,02,03,13.50
2015,08,06,02,04,13.50
2015,08,06,02,05,13.50
2015,08,06,02,06,13.50
2015,08,06,02,07,13.50
2015,08,06,02,08,13.60
2015,08,06,02,09,13.60
2015,08,06,02,10,13.60
2015,08,06,02,11,13.60
2015,08,06,02,12,13.60
2015,08,06,02,13,13.60
2015,08,06,02,14,13.60
2015,08,06,02,15,13.60
2015,08,06,02,16,13.60
2015,08,06,02,17,13.60
2015,08,06,02,18,13.60
2015,08,06,02,19,13.60
2015,08,06,02,20,13.60
2015,08,06,02,21,13.60
2015,08,06,02,22,13.60
2015,08,06,02,23,13.60
2015,08,06,02,24,13.60
2015,08,06,02,25,13.60
2015,08,06,02,26,13.60
2015,08,06,02,27,13.60
2015,08,06,02,28,13.60
2015,08,06,02,29,13.60
2015,08,06,02,30,13.60
2015,08,06,02,31,13.60
2015,08,06,02,32,13.60
2015,08,06,02,33,13.60
2015,08,06,02,34,13.60
2015,08,06,02,35,13.60
2015,08,06,02,36,13.60
2015,08,06,02,37,13.60
2015,08,06,02,38,13.60
2015,08,06,02,39,13.60
2015,08,06,02,40,13.60
2015,08,06,02,41,13.60
2015,08,06,02,42,13.60
2015,08,06,02,43,13.60
2015,08,06,02,44,13.60
2015,08,06,02,45,13.60
2015,08,06,02,46,13.60
2015,08,06,02,47,13.60
2015,08,06,02,48,13.60
2015,08,06,02,49,13.60
2015,08,06,02,50,13.60
2015,08,06,02,51,13.60
2015,08,06,02,52,13.60
2015,08,06,02,53,13.60
2015,08,06,02,54,13.60
2015,08,06,02,55,13.60
2015,08,06,02,56,13.60
2015,08,06,02,57,13.60
2015,08,06,02,58,13.60
2015,08,06,02,59,13.60
2015,08,06,03,00,13.60
2015,08,06,03,01,13.60
2015,08,06,03,02,13.60
2015,08,06,03,06,13.60
2015,08,06,03,07,13.60
2015,08,06,03,08,13.60
2015,08,06,03,09,13.60
2015,08,06,03,10,13.60
2015,08,06,03,11,13.70
2015,08,06,03,12,13.70
2015,08,06,03,13,13.70
2015,08,06,03,14,13.70
2015,08,06,03,15,13.70
2015,08,06,03,16,13.70
2015,08,06,03,17,13.70
2015,08,06,03,18,13.70
2015,08,06,03,19,13.70
2015,08,06,03,20,13.70
2015,08,06,03,21,13.70
2015,08,06,03,22,13.70
2015,08,06,03,23,13.70
2015,08,06,03,24,13.70
2015,08,06,03,25,13.70
2015,08,06,03,26,13.80
2015,08,06,03,27,13.80
2015,08,06,03,28,13.80
2015,08,06,03,29,13.80
2015,08,06,03,30,13.80
2015,08,06,03,31,13.80
2015,08,06,03,32,13.80
2015,08,06,03,33,13.80
2015,08,06,03,34,13.80
2015,08,06,03,35,13.80
2015,08,06,03,36,13.80
2015,08,06,03,37,13.80
2015,08,06,03,38,13.80
2015,08,06,03,39,13.90
2015,08,06,03,40,13.90
2015,08,06,03,41,13.90
2015,08,06,03,42,13.90
2015,08,06,03,43,13.90
2015,08,06,03,44,13.90
2015,08,06,03,45,13.90
2015,08,06,03,46,13.90
2015,08,06,03,47,13.90
2015,08,06,03,48,13.90
2015,08,06,03,49,13.90
2015,08,06,03,50,13.90
2015,08,06,03,51,13.90
2015,08,06,03,52,13.90
2015,08,06,03,53,13.90
2015,08,06,03,54,13.90
2015,08,06,03,55,13.90
2015,08,06,03,56,13.90
2015,08,06,03,57,13.90
2015,08,06,03,58,13.90
2015,08,06,03,59,13.90
2015,08,06,04,00,13.90
2015,08,06,04,01,13.90
2015,08,06,04,02,13.90
2015,08,06,04,03,13.90
2015,08,06,04,04,13.90
2015,08,06,04,05,13.90
2015,08,06,04,06,13.90
2015,08,06,04,07,13.90
2015,08,06,04,08,13.90
2015,08,06,04,09,14.00
2015,08,06,04,10,14.00
2015,08,06,04,11,14.00
2015,08,06,04,12,14.00
2015,08,06,04,13,14.00
2015,08,06,04,14,14.00
2015,08,06,04,15,14.00
2015,08,06,04,16,14.00
2015,08,06,04,17,14.00
2015,08,06,04,18,14.00
2015,08,06,04,19,14.00
2015,08,06,04,20,14.00
2015,08,06,04,21,14.00
2015,08,06,04,22,14.00
2015,08,06,04,23,14.00
2015,08,06,04,24,14.00
2015,08,06,04,25,14.00
2015,08,06,04,26,14.00
2015,08,06,04,27,14.10
2015,08,06,04,28,14.10
2015,08,06,04,29,14.10
2015,08,06,04,30,14.10
2015,08,06,04,31,14.10
2015,08,06,04,32,14.10
2015,08,06,04,33,14.10
2015,08,06,04,34,14.10
2015,08,06,04,35,14.10
2015,08,06,04,36,14.10
2015,08,06,04,37,14.10
2015,08,06,04,38,14.10
2015,08,06,04,39,14.10
2015,08,06,04,40,14.10
2015,08,06,04,41,14.10
2015,08,06,04,42,14.10
2015,08,06,04,43,14.20
2015,08,06,04,44,14.20
2015,08,06,04,45,14.20
2015,08,06,04,46,14.20
2015,08,06,04,47,14.20
2015,08,06,04,48,14.20
2015,08,06,04,49,14.20
2015,08,06,04,50,14.20
2015,08,06,04,51,14.20
2015,08,06,04,52,14.20
2015,08,06,04,53,14.20
2015,08,06,04,54,14.30
2015,08,06,04,55,14.30
2015,08,06,04,56,14.30
2015,08,06,04,57,14.30
2015,08,06,04,58,14.30
2015,08,06,04,59,14.30
2015,08,06,05,00,14.30
2015,08,06,05,01,14.30
2015,08,06,05,02,14.30
2015,08,06,05,03,14.30
2015,08,06,05,04,14.30
2015,08,06,05,05,14.30
2015,08,06,05,06,14.30
2015,08,06,05,07,14.30
2015,08,06,05,08,14.30
2015,08,06,05,09,14.30
2015,08,06,05,10,14.30
2015,08,06,05,11,14.30
2015,08,06,05,12,14.30
2015,08,06,05,13,14.30
2015,08,06,05,14,14.30
2015,08,06,05,15,14.30
2015,08,06,05,16,14.30
2015,08,06,05,17,14.30
2015,08,06,05,18,14.40
2015,08,06,05,19,14.40
2015,08,06,05,20,14.40
2015,08,06,05,21,14.40
2015,08,06,05,22,14.40
2015,08,06,05,23,14.40
2015,08,06,05,24,14.40
2015,08,06,05,25,14.40
2015,08,06,05,26,14.40
2015,08,06,05,27,14.40
2015,08,06,05,28,14.40
2015,08,06,05,29,14.40
2015,08,06,05,30,14.40
2015,08,06,05,31,14.40
2015,08,06,05,32,14.40
2015,08,06,05,33,14.40
2015,08,06,05,34,14.40
2015,08,06,05,35,14.40
2015,08,06,05,36,14.40
2015,08,06,05,37,14.40
2015,08,06,05,38,14.40
2015,08,06,05,39,14.40
2015,08,06,05,40,14.40
2015,08,06,05,41,14.40
2015,08,06,05,42,14.40
2015,08,06,05,43,14.40
2015,08,06,05,44,14.40
2015,08,06,05,45,14.40
2015,08,06,05,46,14.40
2015,08,06,05,47,14.40
2015,08,06,05,48,14.40
2015,08,06,05,49,14.40
2015,08,06,05,50,14.40
2015,08,06,05,51,14.40
2015,08,06,05,52,14.40
2015,08,06,05,53,14.40
2015,08,06,05,54,14.40
2015,08,06,05,55,14.40
2015,08,06,05,56,14.40
2015,08,06,05,57,14.40
2015,08,06,05,58,14.40
2015,08,06,05,59,14.40
2015,08,06,06,00,14.40
2015,08,06,06,01,14.40
2015,08,06,06,02,14.40
2015,08,06,06,03,14.40
2015,08,06,06,04,14.40
2015,08,06,06,05,14.40
2015,08,06,06,06,14.40
2015,08,06,06,07,14.40
2015,08,06,06,08,14.40
2015,08,06,06,09,14.40
2015,08,06,06,10,14.40
2015,08,06,06,11,14.40
2015,08,06,06,12,14.50
2015,08,06,06,13,14.40
2015,08,06,06,14,14.50
2015,08,06,06,15,14.50
2015,08,06,06,16,14.50
2015,08,06,06,17,14.50
2015,08,06,06,18,14.50
2015,08,06,06,19,14.50
2015,08,06,06,20,14.50
2015,08,06,06,21,14.50
2015,08,06,06,22,14.50
2015,08,06,06,23,14.50
2015,08,06,06,24,14.50
2015,08,06,06,25,14.50
2015,08,06,06,26,14.50
2015,08,06,06,27,14.60
2015,08,06,06,28,14.60
2015,08,06,06,29,14.60
2015,08,06,06,30,14.60
2015,08,06,06,31,14.60
2015,08,06,06,32,14.60
2015,08,06,06,33,14.60
2015,08,06,06,34,14.60
2015,08,06,06,35,14.60
2015,08,06,06,36,14.60
2015,08,06,06,37,14.60
2015,08,06,06,38,14.60
2015,08,06,06,39,14.60
2015,08,06,06,40,14.60
2015,08,06,06,41,14.70
2015,08,06,06,42,14.70
2015,08,06,06,43,14.70
2015,08,06,06,44,14.70
2015,08,06,06,45,14.70
2015,08,06,06,46,14.70
2015,08,06,06,47,14.70
2015,08,06,06,48,14.70
2015,08,06,06,49,14.70
2015,08,06,06,50,14.70
2015,08,06,06,51,14.70
2015,08,06,06,52,14.70
2015,08,06,06,53,14.80
2015,08,06,06,54,14.80
2015,08,06,06,55,14.80
2015,08,06,06,56,14.80
2015,08,06,06,57,14.80
2015,08,06,06,58,14.80
2015,08,06,06,59,14.80
2015,08,06,07,00,14.80
2015,08,06,07,01,14.80
2015,08,06,07,02,14.90
2015,08,06,07,03,14.90
2015,08,06,07,04,14.90
2015,08,06,07,05,14.90
2015,08,06,07,06,14.90
2015,08,06,07,07,14.90
2015,08,06,07,08,14.90
2015,08,06,07,09,15.00
2015,08,06,07,10,15.00
2015,08,06,07,11,15.00
2015,08,06,07,12,15.00
2015,08,06,07,13,15.10
2015,08,06,07,14,15.10
2015,08,06,07,15,15.10
2015,08,06,07,16,15.10
2015,08,06,07,17,15.10
2015,08,06,07,18,15.20
2015,08,06,07,19,15.20
2015,08,06,07,20,15.20
2015,08,06,07,21,15.20
2015,08,06,07,22,15.30
2015,08,06,07,23,15.30
2015,08,06,07,24,15.30
2015,08,06,07,25,15.30
2015,08,06,07,26,15.40
2015,08,06,07,27,15.40
2015,08,06,07,28,15.40
2015,08,06,07,29,15.50
2015,08,06,07,30,15.50
2015,08,06,07,31,15.60
2015,08,06,07,32,15.60
2015,08,06,07,33,15.60
2015,08,06,07,34,15.70
2015,08,06,07,35,15.70
2015,08,06,07,36,15.80
2015,08,06,07,37,15.80
2015,08,06,07,38,15.80
2015,08,06,07,39,15.90
2015,08,06,07,40,15.90
2015,08,06,07,41,16.00
2015,08,06,07,42,16.00
2015,08,06,07,43,16.10
2015,08,06,07,44,16.10
2015,08,06,07,45,16.20
2015,08,06,07,46,16.20
2015,08,06,07,47,16.30
2015,08,06,07,48,16.30
2015,08,06,07,49,16.30
2015,08,06,07,50,16.40
2015,08,06,07,51,16.40
2015,08,06,07,52,16.50
2015,08,06,07,53,16.50
2015,08,06,07,54,16.50
2015,08,06,07,55,16.60
2015,08,06,07,56,16.60
2015,08,06,07,57,16.70
2015,08,06,07,58,16.70
2015,08,06,07,59,16.80
2015,08,06,08,00,16.80
2015,08,06,08,01,16.80
2015,08,06,08,02,16.90
2015,08,06,08,03,16.90
2015,08,06,08,04,17.00
2015,08,06,08,05,17.10
2015,08,06,08,06,17.10
2015,08,06,08,07,17.10
2015,08,06,08,08,17.20
2015,08,06,08,09,17.30
2015,08,06,08,10,17.30
2015,08,06,08,11,17.40
2015,08,06,08,12,17.40
2015,08,06,08,13,17.40
2015,08,06,08,14,17.50
2015,08,06,08,15,17.50
2015,08,06,08,16,17.60
2015,08,06,08,17,17.60
2015,08,06,08,18,17.60
2015,08,06,08,19,17.70
2015,08,06,08,20,17.70
2015,08,06,08,21,17.80
2015,08,06,08,22,17.80
2015,08,06,08,23,17.80
2015,08,06,08,24,17.90
2015,08,06,08,25,18.00
2015,08,06,08,26,18.00
2015,08,06,08,27,18.10
2015,08,06,08,28,18.10
2015,08,06,08,29,18.10
2015,08,06,08,30,18.20
2015,08,06,08,31,18.20
2015,08,06,08,32,18.20
2015,08,06,08,33,18.20
2015,08,06,08,34,18.20
2015,08,06,08,35,18.20
2015,08,06,08,36,18.30
2015,08,06,08,37,18.30
2015,08,06,08,38,18.30
2015,08,06,08,39,18.40
2015,08,06,08,40,18.40
2015,08,06,08,41,18.40
2015,08,06,08,42,18.50
2015,08,06,08,43,18.50
2015,08,06,08,44,18.50
2015,08,06,08,45,18.50
2015,08,06,08,46,18.50
2015,08,06,08,47,18.50
2015,08,06,08,48,18.50
2015,08,06,08,49,18.50
2015,08,06,08,50,18.50
2015,08,06,08,51,18.50
2015,08,06,08,52,18.50
2015,08,06,08,53,18.50
2015,08,06,08,54,18.50
2015,08,06,08,55,18.40
2015,08,06,08,56,18.40
2015,08,06,08,57,18.40
2015,08,06,08,58,18.40
2015,08,06,08,59,18.40
2015,08,06,09,00,18.40
2015,08,06,09,01,18.40
2015,08,06,09,02,18.40
2015,08,06,09,03,18.40
2015,08,06,09,04,18.40
2015,08,06,09,05,18.40
2015,08,06,09,06,18.40
2015,08,06,09,07,18.40
2015,08,06,09,08,18.40
2015,08,06,09,09,18.30
2015,08,06,09,10,18.40
2015,08,06,09,11,18.40
2015,08,06,09,12,18.40
2015,08,06,09,13,18.40
2015,08,06,09,14,18.40
2015,08,06,09,15,18.40
2015,08,06,09,16,18.40
2015,08,06,09,17,18.40
2015,08,06,09,18,18.40
2015,08,06,09,19,18.40
2015,08,06,09,20,18.40
2015,08,06,09,21,18.40
2015,08,06,09,22,18.40
2015,08,06,09,23,18.40
2015,08,06,09,24,18.40
2015,08,06,09,25,18.40
2015,08,06,09,26,18.40
2015,08,06,09,27,18.40
2015,08,06,09,28,18.40
2015,08,06,09,29,18.40
2015,08,06,09,30,18.50
2015,08,06,09,31,18.60
2015,08,06,09,32,18.70
2015,08,06,09,33,18.70
2015,08,06,09,34,18.60
2015,08,06,09,35,18.60
2015,08,06,09,36,18.60
2015,08,06,09,37,18.60
2015,08,06,09,38,18.50
2015,08,06,09,39,18.40
2015,08,06,09,40,18.30
2015,08,06,09,41,18.30
2015,08,06,09,42,18.30
2015,08,06,09,43,18.30
2015,08,06,09,44,18.40
2015,08,06,09,45,18.40
2015,08,06,09,46,18.40
2015,08,06,09,47,18.40
2015,08,06,09,48,18.40
2015,08,06,09,49,18.50
2015,08,06,09,50,18.50
2015,08,06,09,51,18.60
2015,08,06,09,52,18.70
2015,08,06,09,53,18.70
2015,08,06,09,54,18.80
2015,08,06,09,55,18.80
2015,08,06,09,56,18.90
2015,08,06,09,57,18.90
2015,08,06,09,58,18.90
2015,08,06,09,59,18.90
2015,08,06,10,00,19.00
2015,08,06,10,01,19.00
2015,08,06,10,02,19.10
2015,08,06,10,03,19.10
2015,08,06,10,04,19.00
2015,08,06,10,05,19.00
2015,08,06,10,06,18.90
2015,08,06,10,07,18.90
2015,08,06,10,08,18.90
2015,08,06,10,09,19.00
2015,08,06,10,10,19.00
2015,08,06,10,11,19.10
2015,08,06,10,12,19.20
2015,08,06,10,13,19.30
2015,08,06,10,14,19.30
2015,08,06,10,15,19.30
2015,08,06,10,16,19.30
2015,08,06,10,17,19.30
2015,08,06,10,18,19.30
2015,08,06,10,19,19.30
2015,08,06,10,20,19.30
2015,08,06,10,21,19.30
2015,08,06,10,22,19.40
2015,08,06,10,23,19.50
2015,08,06,10,24,19.50
2015,08,06,10,25,19.60
2015,08,06,10,26,19.70
2015,08,06,10,27,19.70
2015,08,06,10,28,19.60
2015,08,06,10,29,19.50
2015,08,06,10,30,19.40
2015,08,06,10,31,19.30
2015,08,06,10,32,19.30
2015,08,06,10,33,19.40
2015,08,06,10,34,19.50
2015,08,06,10,35,19.50
2015,08,06,10,36,19.50
2015,08,06,10,37,19.50
2015,08,06,10,38,19.40
2015,08,06,10,39,19.50
2015,08,06,10,40,19.50
2015,08,06,10,41,19.60
2015,08,06,10,42,19.60
2015,08,06,10,43,19.60
2015,08,06,10,44,19.50
2015,08,06,10,45,19.50
2015,08,06,10,46,19.60
2015,08,06,10,47,19.60
2015,08,06,10,48,19.60
2015,08,06,10,49,19.50
2015,08,06,10,50,19.40
2015,08,06,10,51,19.40
2015,08,06,10,52,19.30
2015,08,06,10,53,19.20
2015,08,06,10,54,19.00
2015,08,06,10,55,18.80
2015,08,06,10,56,18.70
2015,08,06,10,57,18.60
2015,08,06,10,58,18.60
2015,08,06,10,59,18.70
2015,08,06,11,00,18.70
2015,08,06,11,01,18.80
2015,08,06,11,02,18.80
2015,08,06,11,03,18.80
2015,08,06,11,04,18.80
2015,08,06,11,05,18.70
2015,08,06,11,06,18.70
2015,08,06,11,07,18.70
2015,08,06,11,08,18.80
2015,08,06,11,09,18.80
2015,08,06,11,10,18.80
2015,08,06,11,11,18.90
2015,08,06,11,12,18.90
2015,08,06,11,13,18.90
2015,08,06,11,14,18.90
2015,08,06,11,15,18.90
2015,08,06,11,16,18.90
2015,08,06,11,17,18.90
2015,08,06,11,18,19.00
2015,08,06,11,19,19.10
2015,08,06,11,20,19.20
2015,08,06,11,21,19.20
2015,08,06,11,22,19.40
2015,08,06,11,23,19.60
2015,08,06,11,24,19.80
2015,08,06,11,25,20.00
2015,08,06,11,26,20.10
2015,08,06,11,27,20.30
2015,08,06,11,28,20.30
2015,08,06,11,29,20.30
2015,08,06,11,30,20.30
2015,08,06,11,31,20.40
2015,08,06,11,32,20.60
2015,08,06,11,33,20.70
2015,08,06,11,34,21.00
2015,08,06,11,35,21.10
2015,08,06,11,36,21.20
2015,08,06,11,37,21.00
2015,08,06,11,38,20.80
2015,08,06,11,39,20.40
2015,08,06,11,40,20.20
2015,08,06,11,41,20.00
2015,08,06,11,42,19.80
2015,08,06,11,43,19.70
2015,08,06,11,44,19.70
2015,08,06,11,45,19.80
2015,08,06,11,46,19.80
2015,08,06,11,47,19.90
2015,08,06,11,48,19.90
2015,08,06,11,49,20.00
2015,08,06,11,50,20.10
2015,08,06,11,51,20.20
2015,08,06,11,52,20.30
2015,08,06,11,53,20.40
2015,08,06,11,54,20.50
2015,08,06,11,55,20.60
2015,08,06,11,56,20.70
2015,08,06,11,57,20.70
2015,08,06,11,58,20.50
2015,08,06,11,59,20.20
2015,08,06,12,00,20.00
2015,08,06,12,01,19.90
2015,08,06,12,02,19.90
2015,08,06,12,03,19.90
2015,08,06,12,04,19.80
2015,08,06,12,05,19.90
2015,08,06,12,06,20.00
2015,08,06,12,07,20.10
2015,08,06,12,08,20.10
2015,08,06,12,09,20.20
2015,08,06,12,10,20.30
2015,08,06,12,11,20.30
2015,08,06,12,12,20.30
2015,08,06,12,13,20.20
2015,08,06,12,14,20.20
2015,08,06,12,15,20.20
2015,08,06,12,16,20.20
2015,08,06,12,17,20.20
2015,08,06,12,18,20.20
2015,08,06,12,19,20.30
2015,08,06,12,20,20.30
2015,08,06,12,21,20.30
2015,08,06,12,22,20.30
2015,08,06,12,23,20.30
2015,08,06,12,24,20.30
2015,08,06,12,25,20.40
2015,08,06,12,26,20.40
2015,08,06,12,27,20.50
2015,08,06,12,28,20.70
2015,08,06,12,29,20.80
2015,08,06,12,30,21.00
2015,08,06,12,31,21.10
2015,08,06,12,32,21.20
2015,08,06,12,33,21.30
2015,08,06,12,34,21.40
2015,08,06,12,35,21.50
2015,08,06,12,36,21.60
2015,08,06,12,37,21.70
2015,08,06,12,38,21.80
2015,08,06,12,39,21.90
2015,08,06,12,40,21.90
2015,08,06,12,41,21.80
2015,08,06,12,42,21.80
2015,08,06,12,43,21.60
2015,08,06,12,44,21.40
2015,08,06,12,45,21.20
2015,08,06,12,46,21.30
2015,08,06,12,47,21.30
2015,08,06,12,48,21.30
2015,08,06,12,49,21.30
2015,08,06,12,50,21.30
2015,08,06,12,51,21.30
2015,08,06,12,52,21.20
2015,08,06,12,53,21.20
2015,08,06,12,54,21.00
2015,08,06,12,55,21.00
2015,08,06,12,56,20.90
2015,08,06,12,57,20.90
2015,08,06,12,58,20.80
2015,08,06,12,59,20.80
2015,08,06,13,00,20.90
2015,08,06,13,01,20.80
2015,08,06,13,02,20.90
2015,08,06,13,03,21.00
2015,08,06,13,04,21.10
2015,08,06,13,05,21.30
2015,08,06,13,06,21.40
2015,08,06,13,07,21.50
2015,08,06,13,08,21.40
2015,08,06,13,09,21.40
2015,08,06,13,10,21.30
2015,08,06,13,11,21.20
2015,08,06,13,12,21.20
2015,08,06,13,13,21.30
2015,08,06,13,14,21.50
2015,08,06,13,15,21.70
2015,08,06,13,16,21.80
2015,08,06,13,17,21.80
2015,08,06,13,18,21.70
2015,08,06,13,19,21.60
2015,08,06,13,20,21.70
2015,08,06,13,21,21.60
2015,08,06,13,22,21.70
2015,08,06,13,23,21.70
2015,08,06,13,24,21.80
2015,08,06,13,25,21.90
2015,08,06,13,26,21.90
2015,08,06,13,27,21.80
2015,08,06,13,28,21.90
2015,08,06,13,29,21.90
2015,08,06,13,30,22.00
2015,08,06,13,31,22.10
2015,08,06,13,32,22.10
2015,08,06,13,33,22.10
2015,08,06,13,34,22.10
2015,08,06,13,35,22.20
2015,08,06,13,36,22.20
2015,08,06,13,37,22.30
2015,08,06,13,38,22.20
2015,08,06,13,39,22.20
2015,08,06,13,40,22.30
2015,08,06,13,41,22.30
2015,08,06,13,42,22.30
2015,08,06,13,43,22.40
2015,08,06,13,44,22.60
2015,08,06,13,45,22.60
2015,08,06,13,46,22.70
2015,08,06,13,47,22.60
2015,08,06,13,48,22.60
2015,08,06,13,49,22.60
2015,08,06,13,50,22.60
2015,08,06,13,51,22.60
2015,08,06,13,52,22.60
2015,08,06,13,53,22.60
2015,08,06,13,54,22.50
2015,08,06,13,55,22.40
2015,08,06,13,56,22.40
2015,08,06,13,57,22.40
2015,08,06,13,58,22.30
2015,08,06,13,59,22.30
2015,08,06,14,00,22.30
2015,08,06,14,01,22.20
2015,08,06,14,02,22.10
2015,08,06,14,03,22.10
2015,08,06,14,04,22.20
2015,08,06,14,05,22.20
2015,08,06,14,06,22.30
2015,08,06,14,07,22.40
2015,08,06,14,08,22.50
2015,08,06,14,09,22.60
2015,08,06,14,10,22.80
2015,08,06,14,11,22.90
2015,08,06,14,12,23.00
2015,08,06,14,13,22.90
2015,08,06,14,14,22.80
2015,08,06,14,15,22.80
2015,08,06,14,16,22.80
2015,08,06,14,17,22.90
2015,08,06,14,18,22.90
2015,08,06,14,19,22.90
2015,08,06,14,20,22.90
2015,08,06,14,21,22.90
2015,08,06,14,22,23.00
2015,08,06,14,23,23.00
2015,08,06,14,24,23.00
2015,08,06,14,25,23.10
2015,08,06,14,26,23.10
2015,08,06,14,27,23.20
2015,08,06,14,28,23.30
2015,08,06,14,29,23.30
2015,08,06,14,30,23.40
2015,08,06,14,31,23.30
2015,08,06,14,32,23.30
2015,08,06,14,33,23.40
2015,08,06,14,34,23.40
2015,08,06,14,35,23.40
2015,08,06,14,36,23.40
2015,08,06,14,37,23.30
2015,08,06,14,38,23.30
2015,08,06,14,39,23.40
2015,08,06,14,40,23.50
2015,08,06,14,41,23.60
2015,08,06,14,42,23.60
2015,08,06,14,43,23.70
2015,08,06,14,44,23.70
2015,08,06,14,45,23.80
2015,08,06,14,46,23.80
2015,08,06,14,47,23.80
2015,08,06,14,48,23.80
2015,08,06,14,49,23.80
2015,08,06,14,50,23.90
2015,08,06,14,51,24.10
2015,08,06,14,52,24.20
2015,08,06,14,53,24.20
2015,08,06,14,54,24.10
2015,08,06,14,55,23.90
2015,08,06,14,56,23.70
2015,08,06,14,57,23.60
2015,08,06,14,58,23.50
2015,08,06,14,59,23.30
2015,08,06,15,00,23.10
2015,08,06,15,01,23.00
2015,08,06,15,02,22.90
2015,08,06,15,03,22.70
2015,08,06,15,04,22.60
2015,08,06,15,05,22.60
2015,08,06,15,06,22.60
2015,08,06,15,07,22.70
2015,08,06,15,08,22.80
2015,08,06,15,09,22.80
2015,08,06,15,10,22.90
2015,08,06,15,11,22.90
2015,08,06,15,12,22.90
2015,08,06,15,13,22.90
2015,08,06,15,14,22.90
2015,08,06,15,15,23.10
2015,08,06,15,16,23.10
2015,08,06,15,17,23.20
2015,08,06,15,18,23.20
2015,08,06,15,19,23.30
2015,08,06,15,20,23.40
2015,08,06,15,21,23.40
2015,08,06,15,22,23.40
2015,08,06,15,23,23.40
2015,08,06,15,24,23.50
2015,08,06,15,25,23.50
2015,08,06,15,26,23.40
2015,08,06,15,27,23.20
2015,08,06,15,28,23.10
2015,08,06,15,29,23.10
2015,08,06,15,30,23.20
2015,08,06,15,31,23.30
2015,08,06,15,32,23.30
2015,08,06,15,33,23.40
2015,08,06,15,34,23.50
2015,08,06,15,35,23.50
2015,08,06,15,36,23.60
2015,08,06,15,37,23.60
2015,08,06,15,38,23.50
2015,08,06,15,39,23.40
2015,08,06,15,40,23.40
2015,08,06,15,41,23.30
2015,08,06,15,42,23.10
2015,08,06,15,43,23.00
2015,08,06,15,44,22.90
2015,08,06,15,45,22.90
2015,08,06,15,46,22.80
2015,08,06,15,47,22.80
2015,08,06,15,48,22.80
2015,08,06,15,49,22.80
2015,08,06,15,50,22.90
2015,08,06,15,51,22.90
2015,08,06,15,52,22.90
2015,08,06,15,53,22.80
2015,08,06,15,54,22.80
2015,08,06,15,55,22.90
2015,08,06,15,56,23.00
2015,08,06,15,57,23.20
2015,08,06,15,58,23.30
2015,08,06,15,59,23.30
2015,08,06,16,00,23.20
2015,08,06,16,01,23.20
2015,08,06,16,02,23.20
2015,08,06,16,03,23.30
2015,08,06,16,04,23.40
2015,08,06,16,05,23.40
2015,08,06,16,06,23.40
2015,08,06,16,07,23.40
2015,08,06,16,08,23.40
2015,08,06,16,09,23.30
2015,08,06,16,10,23.20
2015,08,06,16,11,22.90
2015,08,06,16,12,22.80
2015,08,06,16,13,22.80
2015,08,06,16,14,22.80
2015,08,06,16,15,22.80
2015,08,06,16,16,22.80
2015,08,06,16,17,22.90
2015,08,06,16,18,22.90
2015,08,06,16,19,22.80
2015,08,06,16,20,22.80
2015,08,06,16,21,22.90
2015,08,06,16,22,22.90
2015,08,06,16,23,22.90
2015,08,06,16,24,22.80
2015,08,06,16,25,22.80
2015,08,06,16,26,22.80
2015,08,06,16,27,22.80
2015,08,06,16,28,22.90
2015,08,06,16,29,23.00
2015,08,06,16,30,23.10
2015,08,06,16,31,23.10
2015,08,06,16,32,23.00
2015,08,06,16,33,23.10
2015,08,06,16,34,23.10
2015,08,06,16,35,23.10
2015,08,06,16,36,23.10
2015,08,06,16,37,23.10
2015,08,06,16,38,22.90
2015,08,06,16,39,22.60
2015,08,06,16,40,22.50
2015,08,06,16,41,22.50
2015,08,06,16,42,22.50
2015,08,06,16,43,22.60
2015,08,06,16,44,22.70
2015,08,06,16,45,22.70
2015,08,06,16,46,22.80
2015,08,06,16,47,22.80
2015,08,06,16,48,22.90
2015,08,06,16,49,23.00
2015,08,06,16,50,23.10
2015,08,06,16,51,23.20
2015,08,06,16,52,23.20
2015,08,06,16,53,23.30
2015,08,06,16,54,23.40
2015,08,06,16,55,23.50
2015,08,06,16,56,23.60
2015,08,06,16,57,23.60
2015,08,06,16,58,23.50
2015,08,06,16,59,23.50
2015,08,06,17,00,23.40
2015,08,06,17,01,23.30
2015,08,06,17,02,23.20
2015,08,06,17,03,23.20
2015,08,06,17,04,23.20
2015,08,06,17,05,23.20
2015,08,06,17,06,23.20
2015,08,06,17,07,23.10
2015,08,06,17,08,23.10
2015,08,06,17,09,23.10
2015,08,06,17,10,23.20
2015,08,06,17,11,23.10
2015,08,06,17,12,23.00
2015,08,06,17,13,22.90
2015,08,06,17,14,22.90
2015,08,06,17,15,22.90
2015,08,06,17,16,22.90
2015,08,06,17,17,22.90
2015,08,06,17,18,22.90
2015,08,06,17,19,22.80
2015,08,06,17,20,22.80
2015,08,06,17,21,22.80
2015,08,06,17,22,22.70